26 Sep
2007
26 Sep
'07
12:33 a.m.
ISS 1 25544U 98067A 07268.68181910 .00055993 00000-0 36637-3 0 470 2 25544 051.6353 305.3750 0002655 035.8721 063.9765 15.75239193506633
6297
Age (days ago)
6297
Last active (days ago)
0 comments
1 participants
participants (1)
-
Dave Larsen PhD